Regional Weather Roundup
Issued by NWS Albany, NY

Home | Current Version | Previous Version | Text Only | Print | Product List | Glossary On
Versions: 1 2 3 4 5 6 7 8 9 10 11 12 13 14 15 16 17 18 19 20 21 22 23 24 25 26 27 28 29 30 31 32 33 34 35 36 37 38 39 40 41 42 43 44 45 46 47 48 49 50
000
ASUS41 KALY 030010
RWRALY

NEW YORK STATE HOURLY WEATHER ROUNDUP
NATIONAL WEATHER SERVICE ALBANY NY
800 PM EDT SUN AUG 02 2015

NOTE: "FAIR" INDICATES FEW OR NO CLOUDS BELOW 12,000 FEET WITH NO
SIGNIFICANT WEATHER AND/OR NO OBSTRUCTIONS TO VISIBILITY.

NYZ032-033-038>043-046>054-057>066-NYZ062>081-030100-
EAST


CITY           SKY/WX    TMP DP  RH WIND       PRES   REMARKS
ALBANY         PTCLDY    80  55  42 S8        29.84R
GLENS FALLS    CLEAR     76  62  62 S5        29.82R
POUGHKEEPSIE   CLEAR     83  55  38 SW5       29.86R
NEWBURGH         N/A     81  57  44 SW8       29.90R
MONTGOMERY     CLEAR     77  59  53 SW5       29.88R
WHITE PLAINS   PTCLDY    78  59  51 CALM      29.88R
ISLIP          PTCLDY    78  66  66 S9        29.87S
NEW YORK CITY  PTCLDY    81  61  50 S14G20    29.87R
CENTRAL PARK   CLEAR     81  61  50 CALM      29.90S
$$

NYZ005>009-017-018-044>046-055-056-030100-
CENTRAL


CITY           SKY/WX    TMP DP  RH WIND       PRES   REMARKS
FULTON         MOCLDY    75  60  59 SE3       29.78F
SYRACUSE       CLOUDY    79  55  43 S7        29.78F
ROME           PTCLDY    75  59  57 SE3       29.83S
ELMIRA         CLEAR     79  59  50 SW6       29.83S
BINGHAMTON     PTCLDY    73  58  59 S7        29.89S
MONTICELLO     PTCLDY    73  57  56 SW7       29.94R
$$

NYZ026>034-041>043-030100-
NORTH


CITY           SKY/WX    TMP DP  RH WIND       PRES   REMARKS
WATERTOWN      CLOUDY    74  58  57 SW5       29.79R
FORT DRUM      NOT AVBL
MASSENA        PTCLDY    74  58  57 SW7       29.74S
SARANAC LAKE   CLEAR     70  54  56 SW8       29.83R
PLATTSBURGH    CLEAR     73  64  73 S5        29.76R
$$

NYZ001>004-010>016-019>021-030100-
WEST


CITY           SKY/WX    TMP DP  RH WIND       PRES   REMARKS
NIAGARA FALLS  CLOUDY    76  62  62 CALM      29.74S
BUFFALO        CLOUDY    79  59  50 SW12      29.77R
DUNKIRK        MOCLDY    80  61  52 SW8       29.77R
JAMESTOWN      PTCLDY    75  57  53 S8        29.86R
WELLSVILLE     PTCLDY    75  56  51 S7        29.89F
ROCHESTER      CLOUDY    79  59  50 S6        29.77S
PENN YAN       PTCLDY    76  58  53 S5        29.81F
$$

             KEY
       WCI = WIND CHILL INDEX
       VSB = VISIBILITY
       HX  = HEAT INDEX
$$



USA.gov is the U.S. government's official web portal to all federal, state and local government web resources and services.